INTELSAT 906 (IS-906)

Last updated on Sat Aug 15 2026 00:02:57 GMT+0000 (Coordinated Universal Time)

1 27513U 02041A 26226.58070946 -.00000003 00000+0 00000+0 0 9994 2 27513 5.9453 72.1822 0002741 61.9862 102.0504 1.00271147 87611
UTC large
Height (km)
Speed (km/s)
/
Latitude / Longitude
Inclination (degrees)
Orbital Period (minutes)
Azimuth
Elevation
Range (km)
Doppler Factor

Next 0 passes for location: London (51.5072 / 0.1276)

No passes found over London.
INTELSAT 906 (IS-906)